TimeCDT,TemperatureF,Dew PointF,Humidity,Sea Level PressureIn,VisibilityMPH,Wind Direction,Wind SpeedMPH,Gust SpeedMPH,PrecipitationIn,Events,Conditions,WindDirDegrees,DateUTC
12:13 AM,77.0,62.6,61,29.92,10.0,South,12.7,17.3,N/A,,Clear,190,2013-07-13 05:13:00
12:34 AM,77.0,62.6,61,29.93,10.0,SSW,11.5,18.4,N/A,,Clear,200,2013-07-13 05:34:00
12:54 AM,77.0,62.6,61,29.93,10.0,SSW,10.4,-,N/A,,Clear,200,2013-07-13 05:54:00
1:13 AM,77.0,62.6,61,29.93,10.0,South,8.1,-,N/A,,Clear,190,2013-07-13 06:13:00
1:34 AM,77.0,62.6,61,29.93,10.0,SSW,5.8,-,N/A,,Clear,210,2013-07-13 06:34:00
1:54 AM,75.2,64.4,69,29.94,10.0,Calm,Calm,-,N/A,Rain,Rain,0,2013-07-13 06:54:00
2:13 AM,64.4,60.8,88,29.93,10.0,NNE,4.6,-,N/A,Rain-Thunderstorm,Thunderstorms and Rain,20,2013-07-13 07:13:00
2:34 AM,64.4,60.8,88,29.96,10.0,North,10.4,-,N/A,,Overcast,360,2013-07-13 07:34:00
2:53 AM,64.4,62.6,94,29.98,10.0,ENE,3.5,-,N/A,Rain-Thunderstorm,Light Thunderstorms and Rain,70,2013-07-13 07:53:00
3:14 AM,66.2,62.6,88,29.96,10.0,ENE,8.1,-,N/A,Thunderstorm,Unknown,70,2013-07-13 08:14:00
3:34 AM,64.4,62.6,94,29.94,10.0,East,8.1,-,N/A,,Mostly Cloudy,80,2013-07-13 08:34:00
3:53 AM,64.4,62.6,94,29.96,10.0,ESE,9.2,-,N/A,Thunderstorm,Thunderstorm,120,2013-07-13 08:53:00
4:14 AM,66.2,62.6,88,29.97,10.0,South,9.2,-,N/A,Thunderstorm,Thunderstorm,170,2013-07-13 09:14:00
4:34 AM,68.0,64.4,88,29.97,10.0,South,11.5,-,N/A,Thunderstorm,Overcast,170,2013-07-13 09:34:00
4:53 AM,68.0,64.4,88,29.97,10.0,South,11.5,-,N/A,Thunderstorm,Overcast,170,2013-07-13 09:53:00
5:14 AM,66.2,64.4,94,29.96,10.0,South,9.2,-,N/A,,Light Drizzle,170,2013-07-13 10:14:00
5:34 AM,66.2,64.4,94,29.97,7.0,SSW,9.2,-,N/A,Rain,Rain,200,2013-07-13 10:34:00
5:53 AM,66.2,62.6,88,29.97,10.0,South,10.4,-,N/A,Rain,Light Rain,180,2013-07-13 10:53:00
6:14 AM,66.2,62.6,88,29.98,10.0,SSW,6.9,-,N/A,,Overcast,210,2013-07-13 11:14:00
6:33 AM,66.2,64.4,94,29.97,10.0,SSW,6.9,-,N/A,,Overcast,210,2013-07-13 11:33:00
6:53 AM,66.2,64.4,94,29.98,10.0,SSW,3.5,-,N/A,,Overcast,210,2013-07-13 11:53:00
7:14 AM,68.0,64.4,88,30.00,10.0,SW,4.6,-,N/A,,Light Drizzle,220,2013-07-13 12:14:00
7:33 AM,68.0,64.4,88,30.00,10.0,SW,3.5,-,N/A,Rain,Light Rain,220,2013-07-13 12:33:00
7:53 AM,68.0,64.4,88,30.01,10.0,Calm,Calm,-,N/A,,Overcast,0,2013-07-13 12:53:00
8:13 AM,69.8,64.4,83,30.01,10.0,Calm,Calm,-,N/A,,Mostly Cloudy,0,2013-07-13 13:13:00
8:33 AM,69.8,64.4,83,30.02,10.0,Calm,Calm,-,N/A,,Mostly Cloudy,0,2013-07-13 13:33:00
8:54 AM,69.8,64.4,83,30.02,10.0,SSE,3.5,-,N/A,,Mostly Cloudy,160,2013-07-13 13:54:00
9:13 AM,69.8,64.4,83,30.02,10.0,Calm,Calm,-,N/A,,Overcast,0,2013-07-13 14:13:00
9:33 AM,71.6,66.2,83,30.02,10.0,South,6.9,-,N/A,,Overcast,180,2013-07-13 14:33:00
9:54 AM,71.6,66.2,83,30.02,10.0,South,8.1,-,N/A,,Overcast,190,2013-07-13 14:54:00
10:13 AM,71.6,66.2,83,30.03,10.0,South,5.8,-,N/A,,Overcast,180,2013-07-13 15:13:00
10:34 AM,71.6,66.2,83,30.02,10.0,South,8.1,-,N/A,,Overcast,190,2013-07-13 15:34:00
10:54 AM,73.4,66.2,78,30.02,10.0,South,10.4,-,N/A,,Overcast,180,2013-07-13 15:54:00
11:13 AM,73.4,66.2,78,30.02,10.0,SSW,8.1,-,N/A,,Overcast,200,2013-07-13 16:13:00
11:34 AM,73.4,66.2,78,30.02,10.0,South,6.9,-,N/A,,Overcast,190,2013-07-13 16:34:00
11:53 AM,73.4,68.0,83,30.02,10.0,SSW,9.2,-,N/A,,Overcast,200,2013-07-13 16:53:00
12:14 PM,75.2,68.0,78,30.02,10.0,SW,6.9,-,N/A,,Mostly Cloudy,220,2013-07-13 17:14:00
12:33 PM,75.2,68.0,78,30.02,10.0,SSW,10.4,-,N/A,,Overcast,210,2013-07-13 17:33:00
12:54 PM,77.0,68.0,74,30.02,10.0,SSW,4.6,-,N/A,,Overcast,200,2013-07-13 17:54:00
1:13 PM,77.0,68.0,74,30.02,10.0,South,9.2,-,N/A,,Overcast,180,2013-07-13 18:13:00
1:33 PM,77.0,68.0,74,30.03,10.0,SSE,9.2,-,N/A,,Overcast,160,2013-07-13 18:33:00
1:54 PM,75.2,68.0,78,30.03,10.0,South,12.7,-,N/A,,Overcast,190,2013-07-13 18:54:00
2:13 PM,75.2,68.0,78,30.03,10.0,South,9.2,15.0,N/A,,Overcast,190,2013-07-13 19:13:00
2:33 PM,75.2,68.0,78,30.03,10.0,South,4.6,-,N/A,,Overcast,190,2013-07-13 19:33:00
2:54 PM,75.2,68.0,78,30.03,10.0,South,10.4,-,N/A,,Overcast,190,2013-07-13 19:54:00
3:13 PM,75.2,68.0,78,30.04,10.0,South,12.7,-,N/A,,Overcast,180,2013-07-13 20:13:00
3:33 PM,75.2,68.0,78,30.04,10.0,SSW,8.1,-,N/A,,Overcast,210,2013-07-13 20:33:00
3:53 PM,75.2,68.0,78,30.04,10.0,South,9.2,-,N/A,,Overcast,190,2013-07-13 20:53:00
4:13 PM,75.2,68.0,78,30.04,10.0,SSW,9.2,-,N/A,,Overcast,200,2013-07-13 21:13:00
4:34 PM,75.2,68.0,78,30.03,10.0,SSW,8.1,-,N/A,,Mostly Cloudy,210,2013-07-13 21:34:00
4:53 PM,75.2,68.0,78,30.03,10.0,SSW,8.1,-,N/A,,Mostly Cloudy,200,2013-07-13 21:53:00
5:13 PM,75.2,68.0,78,30.03,10.0,SW,10.4,-,N/A,,Overcast,220,2013-07-13 22:13:00
5:34 PM,75.2,68.0,78,30.04,10.0,SSW,8.1,-,N/A,,Overcast,210,2013-07-13 22:34:00
5:53 PM,73.4,68.0,83,30.04,10.0,SW,5.8,-,N/A,,Overcast,220,2013-07-13 22:53:00
6:13 PM,75.2,68.0,78,30.04,10.0,SW,5.8,-,N/A,,Overcast,220,2013-07-13 23:13:00
6:34 PM,73.4,68.0,83,30.04,10.0,SW,5.8,-,N/A,,Overcast,230,2013-07-13 23:34:00
6:53 PM,73.4,68.0,83,30.04,10.0,SW,5.8,-,N/A,,Overcast,230,2013-07-13 23:53:00
7:13 PM,73.4,68.0,83,30.04,10.0,WSW,3.5,-,N/A,,Overcast,240,2013-07-14 00:13:00
7:33 PM,73.4,68.0,83,30.04,10.0,Calm,Calm,-,N/A,,Overcast,0,2013-07-14 00:33:00
7:53 PM,73.4,68.0,83,30.04,10.0,Calm,Calm,-,N/A,,Overcast,0,2013-07-14 00:53:00
8:14 PM,69.8,66.2,88,30.04,10.0,Calm,Calm,-,N/A,,Overcast,0,2013-07-14 01:14:00
8:34 PM,68.0,64.4,88,30.04,10.0,Calm,Calm,-,N/A,,Overcast,0,2013-07-14 01:34:00
8:54 PM,68.0,64.4,88,30.04,10.0,ESE,8.1,-,N/A,,Overcast,110,2013-07-14 01:54:00
9:14 PM,66.2,62.6,88,30.05,10.0,East,5.8,-,N/A,,Overcast,100,2013-07-14 02:14:00
9:33 PM,66.2,62.6,88,30.05,10.0,ESE,5.8,-,N/A,,Overcast,110,2013-07-14 02:33:00
9:54 PM,66.2,64.4,94,30.07,10.0,Calm,Calm,-,N/A,,Overcast,0,2013-07-14 02:54:00
10:13 PM,62.6,60.8,94,30.07,7.0,NNE,9.2,-,N/A,,Mostly Cloudy,20,2013-07-14 03:13:00
10:33 PM,60.8,59.0,94,30.07,7.0,North,9.2,-,N/A,,Mostly Cloudy,10,2013-07-14 03:33:00
10:54 PM,60.8,57.2,88,30.09,7.0,NNE,6.9,-,N/A,,Scattered Clouds,20,2013-07-14 03:54:00
11:13 PM,60.8,59.0,94,30.09,7.0,NE,4.6,-,N/A,,Clear,40,2013-07-14 04:13:00
11:34 PM,60.8,59.0,94,30.09,7.0,ENE,3.5,-,N/A,,Scattered Clouds,60,2013-07-14 04:34:00
11:53 PM,60.8,59.0,94,30.09,7.0,ENE,4.6,-,N/A,,Mostly Cloudy,60,2013-07-14 04:53:00